Date,TemperatureHighF,TemperatureAvgF,TemperatureLowF,DewpointHighF,DewpointAvgF,DewpointLowF,HumidityHigh,HumidityAvg,HumidityLow,PressureMaxIn,PressureMinIn,WindSpeedMaxMPH,WindSpeedAvgMPH,GustSpeedMaxMPH,PrecipitationSumIn
2013-2-21,17.8,15.2,13.1,16.1,13.9,11.8,95,94,93,30.13,30.08,7,3,13,0.00
2013-2-22,34.9,16.9,4.1,22.7,11.2,2.1,94,79,50,30.22,30.12,6,1,11,0.00
2013-2-23,51.8,21.5,2.7,30.1,14.4,0.0,90,77,37,30.14,29.93,4,0,8,0.00
2013-2-24,41.5,27.1,14.2,32.3,22.7,12.3,95,84,63,30.27,29.99,7,1,12,0.00
2013-2-25,46.2,33.5,16.7,32.2,26.1,14.3,96,76,49,30.27,30.11,7,2,11,0.00
2013-2-26,53.2,25.9,7.3,29.5,17.5,5.6,93,73,34,30.18,30.03,6,1,8,0.00
2013-2-27,35.4,29.9,21.9,28.7,24.3,18.9,88,80,70,30.38,30.17,10,3,21,0.00
2013-2-28,48.2,30.0,18.7,31.2,23.1,17.0,94,78,49,30.44,30.36,6,1,12,0.00
2013-3-1,45.5,30.0,17.2,33.2,24.2,15.5,95,80,54,30.50,30.40,8,1,12,0.00
2013-3-2,69.1,37.1,17.1,44.7,29.2,15.2,95,77,40,30.48,30.20,4,0,5,0.00
2013-3-3,66.9,43.5,29.3,42.6,34.5,27.8,95,74,37,30.20,29.81,5,1,10,0.00
2013-3-4,52.7,37.7,25.0,36.1,22.6,9.1,95,58,26,30.35,29.81,12,4,23,0.00
2013-3-5,46.2,30.2,18.5,18.2,13.7,10.8,79,53,24,30.53,30.35,11,4,26,0.00
2013-3-6,46.0,29.6,14.7,27.5,20.3,11.6,89,70,44,30.52,30.21,8,2,17,0.00
2013-3-7,57.6,37.1,23.2,32.7,27.0,20.4,92,70,36,30.26,30.18,4,1,11,0.00
2013-3-8,59.2,42.0,26.1,50.6,34.8,23.6,94,77,47,30.26,29.94,5,1,12,0.00
2013-3-9,59.2,40.9,29.7,57.9,38.9,27.3,99,93,81,30.09,29.77,17,5,32,0.00
2013-3-10,33.4,25.3,14.9,30.3,19.4,11.0,99,79,54,30.29,30.08,14,6,29,0.00
2013-3-11,60.8,35.0,13.6,31.0,21.5,10.8,89,63,29,30.26,30.06,11,2,21,0.00
2013-3-12,48.7,36.8,24.1,27.9,14.9,3.6,84,46,16,30.50,30.26,12,3,27,0.00
2013-3-13,72.3,41.9,18.7,32.3,21.7,11.6,80,51,18,30.51,30.31,8,1,14,0.00
2013-3-14,82.2,53.2,37.8,39.5,31.4,21.3,79,51,11,30.39,30.24,6,1,11,0.00
2013-3-15,86.7,60.0,39.9,40.8,31.6,18.9,76,43,10,30.24,29.94,8,2,18,0.00
2013-3-16,49.8,38.7,31.5,36.3,26.8,20.3,86,63,38,30.29,30.11,8,3,17,0.00
2013-3-17,39.4,31.9,26.8,33.3,28.2,21.2,98,86,63,30.24,29.85,8,2,15,0.00
2013-3-18,52.2,37.7,25.7,34.5,21.4,11.1,99,58,22,30.25,29.98,11,2,21,0.00
2013-3-19,57.6,39.7,28.4,30.8,20.6,10.1,76,48,23,30.52,30.19,11,3,20,0.00
2013-3-20,53.4,33.8,13.8,20.5,11.7,3.0,76,46,15,30.58,30.14,7,2,13,0.00
2013-3-21,52.3,39.7,28.6,29.1,20.8,16.6,94,50,27,30.14,29.92,8,3,18,0.00
2013-3-22,50.5,35.2,29.3,33.9,30.5,27.1,98,85,50,30.17,30.03,8,1,12,0.00
2013-3-23,31.3,28.2,23.7,30.0,25.5,17.6,97,90,75,30.35,30.15,11,4,21,0.00
2013-3-24,38.5,24.7,12.6,19.8,13.3,6.8,88,65,30,30.40,30.28,12,3,22,0.00
2013-3-25,39.9,23.3,12.9,14.9,11.5,8.3,87,64,31,30.51,30.40,11,2,21,0.00
2013-3-26,54.9,34.7,9.5,26.5,15.7,5.5,85,53,17,30.51,30.26,9,2,17,0.00
2013-3-27,49.3,49.3,49.3,23.5,23.5,23.5,36,36,36,30.26,30.26,2,2,9,0.00
2013-3-28,49.3,49.3,49.3,23.5,23.5,23.5,36,36,36,30.26,30.26,2,2,9,0.00
2013-3-29,49.3,49.3,49.3,23.5,23.5,23.5,36,36,36,30.26,30.26,2,2,9,0.00
2013-3-30,49.3,49.3,49.3,23.5,23.5,23.5,36,36,36,30.26,30.26,2,2,9,0.00
2013-3-31,49.3,49.3,49.3,23.5,23.5,23.5,36,36,36,30.26,30.26,2,2,9,0.00
2013-4-1,61.0,42.4,30.2,29.9,25.4,22.4,86,55,23,30.46,30.34,6,2,11,0.00
2013-4-2,64.9,43.9,23.4,33.1,25.1,18.4,83,52,23,30.42,30.34,8,2,15,0.00
2013-4-3,61.7,45.4,29.7,35.1,26.5,22.5,81,52,24,30.43,30.32,11,3,20,0.00
2013-4-4,75.9,50.2,30.0,37.6,32.5,26.5,88,57,21,30.37,30.26,7,1,11,0.00
2013-4-5,81.9,56.1,33.3,42.2,32.2,24.1,89,49,13,30.29,29.85,13,2,21,0.00
2013-4-6,77.5,61.5,46.8,42.2,35.5,19.8,72,42,13,30.06,29.85,14,3,24,0.00
2013-4-7,74.5,53.8,43.2,54.4,41.7,28.8,86,65,42,30.06,29.85,5,0,8,0.00
2013-4-8,84.2,55.7,35.8,58.3,44.6,34.2,99,74,18,29.96,29.79,14,2,33,0.00
2013-4-9,36.1,24.1,18.3,35.9,21.8,14.8,99,91,84,30.35,29.77,19,8,38,0.00
2013-4-10,28.6,23.8,19.9,23.4,20.1,16.9,92,85,78,30.32,30.14,11,5,23,0.00
2013-4-11,41.2,30.2,21.7,27.8,23.5,19.3,92,77,55,30.14,29.97,8,3,20,0.00
2013-4-12,54.0,38.8,27.3,38.0,30.2,23.2,90,73,43,30.21,30.06,9,2,17,0.00
2013-4-13,70.5,51.0,27.9,49.7,40.6,26.6,96,71,42,30.24,29.66,12,3,21,0.00
2013-4-14,58.8,50.4,38.8,49.7,34.7,16.7,94,61,21,29.98,29.55,14,4,24,0.00
2013-4-15,54.7,38.8,29.8,28.3,23.9,17.9,77,56,28,30.27,29.96,7,2,14,0.00
2013-4-16,46.6,37.6,29.8,35.1,30.8,25.6,95,78,53,30.39,30.25,7,2,15,0.00
2013-4-17,39.9,33.0,27.3,32.6,29.8,25.3,95,88,73,30.32,30.11,14,5,28,0.00
2013-4-18,39.4,30.0,25.2,27.3,24.1,21.4,98,80,55,30.27,30.14,13,5,26,0.00
2013-4-19,55.8,39.4,24.6,33.5,26.8,19.9,84,63,38,30.26,30.17,12,3,22,0.00
2013-4-20,63.0,44.3,30.4,36.3,30.8,25.7,84,62,33,30.29,30.19,8,2,17,0.00
2013-4-21,73.8,51.2,31.6,46.2,38.0,28.5,92,66,26,30.29,30.17,8,2,16,0.00
2013-4-22,44.6,35.5,28.9,41.9,32.8,24.1,99,90,78,30.54,30.17,15,4,27,0.00
2013-4-23,48.4,33.9,24.8,24.9,19.7,13.7,86,60,28,30.52,30.35,11,4,19,0.00
2013-4-24,62.8,41.5,19.0,31.6,21.0,7.7,87,53,13,30.42,30.28,17,2,26,0.00
2013-4-25,77.5,52.3,27.5,36.5,28.0,18.1,89,49,13,30.42,30.09,14,4,24,0.00
2013-4-26,79.9,62.5,41.9,39.5,26.5,14.9,66,31,10,30.37,30.15,11,3,20,0.00
2013-4-27,90.0,62.7,37.9,50.1,36.1,20.8,92,49,10,30.37,30.11,8,2,12,0.00
2013-4-28,93.4,69.2,44.2,49.4,36.5,23.2,84,40,10,30.13,29.93,13,3,24,0.00
2013-4-29,90.5,70.2,53.1,50.9,40.8,27.1,64,38,11,30.09,29.74,8,2,14,0.00
2013-4-30,71.6,61.0,46.8,50.8,38.3,22.2,75,46,23,30.26,29.73,12,4,24,0.00
2013-5-1,46.8,35.7,33.3,39.0,32.9,28.8,97,90,70,30.72,30.15,14,5,27,0.00
2013-5-2,57.7,44.6,33.6,32.8,28.1,18.7,87,57,23,30.82,30.61,10,3,20,0.00
2013-5-3,63.9,47.7,28.9,38.8,25.4,13.6,90,49,15,30.61,30.30,10,2,19,0.00
2013-5-4,60.4,44.8,26.1,29.8,23.0,17.1,82,46,19,30.41,30.32,11,4,24,0.00
2013-5-5,74.1,50.7,27.9,33.4,22.8,10.4,82,42,10,30.43,30.31,8,2,18,0.00
2013-5-6,81.5,59.3,36.1,49.2,36.4,26.3,92,50,15,30.36,30.23,6,1,11,0.00
2013-5-7,73.8,58.8,48.0,58.3,50.3,37.1,93,75,51,30.25,30.12,7,2,13,0.00
2013-5-8,81.7,64.3,51.1,58.1,50.1,39.6,98,66,25,30.20,30.10,8,2,14,0.00
2013-5-9,64.0,56.3,49.1,55.0,50.1,45.2,92,80,64,30.32,30.17,11,3,19,0.00
2013-5-10,84.4,61.9,43.3,54.3,46.0,37.8,97,62,20,30.36,30.26,8,1,15,0.00
2013-5-11,74.1,59.1,44.4,46.6,31.2,19.8,68,40,13,30.57,30.36,11,3,19,0.00
2013-5-12,87.1,61.2,40.3,48.4,36.7,22.5,77,46,10,30.46,30.24,4,1,10,0.00
2013-5-13,103.1,75.7,49.3,55.1,44.2,28.9,84,43,10,30.28,30.11,6,1,11,0.00
2013-5-14,105.3,82.8,57.2,52.3,43.6,32.6,66,31,10,30.11,29.95,8,2,14,0.00
2013-5-15,89.4,72.2,59.7,49.8,42.4,35.3,52,37,15,30.17,30.03,9,2,14,0.00
2013-5-16,65.7,62.5,58.3,45.5,43.3,40.7,62,50,40,30.09,30.07,4,0,5,0.00